Weather History for Kelso-Longview, WA

Change the Weather History Date:

Wednesday, January 16, 2013

  Actual Average Record
Temperature  
Mean Temperature 34 °F -  
Max Temperature 35 °F 44 °F 55 °F (2011)
Min Temperature 32 °F 35 °F 26 °F (1997)
Degree Days  
Heating Degree Days 32    
Moisture  
Dew Point 30 °F    
Average Humidity 85    
Maximum Humidity 93    
Minimum Humidity 81    
Precipitation  
Precipitation 0.00 in - - ()
Sea Level Pressure  
Sea Level Pressure 30.60 in    
Wind  
Wind Speed 1 mph (NNW)    
Max Wind Speed 6 mph    
Max Gust Speed -    
Visibility 9 miles    
Events      
Averages and records for this station are not official NWS values.
T = Trace of Precipitation, MM = Missing Value Source: NWS Daily Summary

Daily Weather History Graph

Daily Weather History Graph

Search for Another Location

Airport:

Trip Planner

Search our weather history database for the weather conditions in past years. The results will help you decide how hot, cold, wet, or windy it might be!

Date:

Astronomy

Jan. 16, 2013 Rise Set
Actual Time 7:49 AM PST 4:54 PM PST
Civil Twilight 7:15 AM PST 5:27 PM PST
Nautical Twilight 6:38 AM PST 6:04 PM PST
Astronomical Twilight 6:02 AM PST 6:40 PM PST
Moon 10:06 AM PST (1/16) 11:14 PM PST (1/16)
Length of Visible Light 10h 12m
Length of Day
9h 05m
Waxing Crescent, 29% of the Moon is Illuminated
Jan 16
Waxing Crescent
Jan 18
First Quarter
Jan 26
Full
Feb 3
Last Quarter
Feb 9
New

Hourly Weather History & Observations

Time (PST) Temp. Windchill Dew Point Humidity Pressure Visibility Wind Dir Wind Speed Gust Speed Precip Events Conditions
12:15 AM 35.6 °F - 30.2 °F 81% 30.66 in 10.0 mi Calm Calm - N/A   Overcast
12:35 AM 35.6 °F - 30.2 °F 81% 30.66 in 10.0 mi Calm Calm - N/A   Overcast
12:55 AM 35.6 °F - 30.2 °F 81% 30.67 in 10.0 mi Calm Calm - N/A   Overcast
1:15 AM 35.6 °F - 30.2 °F 81% 30.67 in 10.0 mi Calm Calm - N/A   Overcast
1:35 AM 35.6 °F 32.8 °F 30.2 °F 81% 30.67 in 10.0 mi ENE 3.5 mph - N/A   Overcast
1:55 AM 35.6 °F 32.8 °F 30.2 °F 81% 30.67 in 10.0 mi ESE 3.5 mph - N/A   Overcast
2:15 AM 35.6 °F - 30.2 °F 81% 30.67 in 10.0 mi Calm Calm - N/A   Overcast
2:35 AM 35.6 °F - 30.2 °F 81% 30.67 in 10.0 mi Calm Calm - N/A   Overcast
2:55 AM 35.6 °F - 30.2 °F 81% 30.67 in 10.0 mi Calm Calm - N/A   Overcast
3:15 AM 35.6 °F - 30.2 °F 81% 30.67 in 10.0 mi Calm Calm - N/A   Overcast
3:35 AM 35.6 °F - 30.2 °F 81% 30.67 in 10.0 mi Calm Calm - N/A   Overcast
3:55 AM 35.6 °F - 30.2 °F 81% 30.66 in 10.0 mi Calm Calm - N/A   Overcast
4:35 AM 33.8 °F - 30.2 °F 87% 30.65 in 10.0 mi Calm Calm - N/A   Overcast
4:55 AM 33.8 °F - 30.2 °F 87% 30.65 in 10.0 mi Calm Calm - N/A   Overcast
5:15 AM 33.8 °F - 30.2 °F 87% 30.65 in 10.0 mi Calm Calm - N/A   Overcast
5:35 AM 33.8 °F - 30.2 °F 87% 30.64 in 10.0 mi Calm Calm - N/A   Overcast
5:55 AM 33.8 °F - 30.2 °F 87% 30.64 in 10.0 mi Calm Calm - N/A   Overcast
6:15 AM 33.8 °F 30.8 °F 30.2 °F 87% 30.64 in 10.0 mi North 3.5 mph - N/A   Overcast
6:35 AM 33.8 °F - 28.4 °F 81% 30.64 in 10.0 mi Calm Calm - N/A   Overcast
6:55 AM 33.8 °F 30.8 °F 28.4 °F 81% 30.65 in 10.0 mi NW 3.5 mph - N/A   Overcast
7:15 AM 33.8 °F - 28.4 °F 81% 30.65 in 10.0 mi Calm Calm - N/A   Overcast
7:35 AM 33.8 °F - 28.4 °F 81% 30.65 in 10.0 mi Calm Calm - N/A   Overcast
7:55 AM 33.8 °F - 28.4 °F 81% 30.65 in 10.0 mi Calm Calm - N/A   Overcast
8:15 AM 33.8 °F - 28.4 °F 81% 30.65 in 10.0 mi Calm Calm - N/A   Overcast
8:35 AM 33.8 °F - 30.2 °F 87% 30.65 in 10.0 mi Calm Calm - N/A   Overcast
8:55 AM 33.8 °F - 30.2 °F 87% 30.65 in 10.0 mi Calm Calm - N/A   Overcast
9:15 AM 33.8 °F - 30.2 °F 87% 30.65 in 10.0 mi Calm Calm - N/A   Overcast
9:35 AM 35.6 °F - 30.2 °F 81% 30.65 in 10.0 mi Calm Calm - N/A   Overcast
9:55 AM 35.6 °F - 30.2 °F 81% 30.64 in 10.0 mi Calm Calm - N/A   Overcast
10:15 AM 35.6 °F 32.8 °F 30.2 °F 81% 30.64 in 10.0 mi ESE 3.5 mph - N/A   Overcast
10:35 AM 35.6 °F 31.7 °F 30.2 °F 81% 30.64 in 10.0 mi SSE 4.6 mph - N/A   Overcast
11:15 AM 33.8 °F 29.6 °F 30.2 °F 87% 30.63 in 10.0 mi South 4.6 mph - N/A   Overcast
11:35 AM 33.8 °F 30.8 °F 30.2 °F 87% 30.62 in 10.0 mi South 3.5 mph - N/A   Overcast
11:55 AM 33.8 °F - 30.2 °F 87% 30.61 in 10.0 mi Calm Calm - N/A   Overcast
12:15 PM 33.8 °F - 30.2 °F 87% 30.61 in 10.0 mi Calm Calm - N/A   Overcast
12:35 PM 33.8 °F - 30.2 °F 87% 30.60 in 10.0 mi Calm Calm - N/A   Overcast
12:55 PM 35.6 °F 32.8 °F 30.2 °F 81% 30.59 in 10.0 mi NNE 3.5 mph - N/A   Overcast
1:15 PM 35.6 °F 32.8 °F 30.2 °F 81% 30.59 in 10.0 mi NNW 3.5 mph - N/A   Overcast
1:35 PM 35.6 °F - 30.2 °F 81% 30.59 in 10.0 mi Calm Calm - N/A   Overcast
1:55 PM 35.6 °F 32.8 °F 30.2 °F 81% 30.58 in 10.0 mi NW 3.5 mph - N/A   Overcast
2:15 PM 35.6 °F 32.8 °F 30.2 °F 81% 30.58 in 10.0 mi NW 3.5 mph - N/A   Overcast
2:35 PM 35.6 °F - 30.2 °F 81% 30.57 in 10.0 mi Calm Calm - N/A   Overcast
2:55 PM 35.6 °F - 30.2 °F 81% 30.57 in 10.0 mi Calm Calm - N/A   Overcast
3:15 PM 35.6 °F 31.7 °F 30.2 °F 81% 30.57 in 10.0 mi WNW 4.6 mph - N/A   Overcast
3:35 PM 35.6 °F - 30.2 °F 81% 30.57 in 10.0 mi Calm Calm - N/A   Overcast
3:55 PM 33.8 °F - 30.2 °F 87% 30.56 in 10.0 mi Calm Calm - N/A   Overcast
4:15 PM 33.8 °F 29.6 °F 30.2 °F 87% 30.56 in 10.0 mi West 4.6 mph - N/A   Overcast
4:35 PM 33.8 °F - 30.2 °F 87% 30.56 in 10.0 mi Calm Calm - N/A   Overcast
4:55 PM 33.8 °F - 30.2 °F 87% 30.55 in 10.0 mi Calm Calm - N/A   Overcast
5:15 PM 33.8 °F 30.8 °F 30.2 °F 87% 30.55 in 10.0 mi NW 3.5 mph - N/A   Overcast
5:35 PM 33.8 °F 28.6 °F 30.2 °F 87% 30.55 in 10.0 mi NW 5.8 mph - N/A   Overcast
5:55 PM 33.8 °F - 30.2 °F 87% 30.55 in 10.0 mi North - - N/A   Overcast
6:15 PM 33.8 °F 30.8 °F 30.2 °F 87% 30.55 in 10.0 mi NNW 3.5 mph - N/A   Overcast
6:35 PM 33.8 °F - 30.2 °F 87% 30.55 in 10.0 mi Calm Calm - N/A   Overcast
6:55 PM 33.8 °F 30.8 °F 30.2 °F 87% 30.55 in 10.0 mi WNW 3.5 mph - N/A   Overcast
7:15 PM 33.8 °F 30.8 °F 30.2 °F 87% 30.56 in 10.0 mi NW 3.5 mph - N/A   Overcast
7:35 PM 33.8 °F - 28.4 °F 81% 30.55 in 10.0 mi Calm Calm - N/A   Overcast
7:55 PM 33.8 °F - 30.2 °F 87% 30.55 in 7.0 mi Calm Calm - N/A   Overcast
8:15 PM 32.0 °F - 28.4 °F 87% 30.55 in 8.0 mi Calm Calm - N/A   Overcast
8:35 PM 32.0 °F - 28.4 °F 87% 30.55 in 8.0 mi Calm Calm - N/A   Overcast
8:55 PM 32.0 °F - 28.4 °F 87% 30.55 in 7.0 mi Calm Calm - N/A   Overcast
9:15 PM 32.0 °F - 28.4 °F 87% 30.54 in 8.0 mi Calm Calm - N/A   Overcast
9:35 PM 32.0 °F - 28.4 °F 87% 30.54 in 4.0 mi Calm Calm - N/A   Overcast
9:55 PM 32.0 °F - 28.4 °F 87% 30.54 in 2.5 mi Calm Calm - N/A   Overcast
10:15 PM 32.0 °F - 30.2 °F 93% 30.53 in 3.0 mi Calm Calm - N/A   Overcast
10:35 PM 32.0 °F 28.7 °F 28.4 °F 87% 30.53 in 4.0 mi East 3.5 mph - N/A   Overcast
10:55 PM 32.0 °F - 30.2 °F 93% 30.52 in 2.5 mi Calm Calm - N/A   Overcast
11:15 PM 32.0 °F - 30.2 °F 93% 30.52 in 3.0 mi Calm Calm - N/A   Overcast
11:35 PM 33.8 °F - 30.2 °F 87% 30.52 in 2.5 mi Calm Calm - N/A   Overcast
11:55 PM 33.8 °F 29.6 °F 30.2 °F 87% 30.52 in 8.0 mi SSE 4.6 mph - N/A   Overcast